Regional Weather Roundup
Issued by NWS Northern Indiana

Home | Current Version | Previous Version | Graphics & Text | Print | Product List | Glossary On
Versions: 1 2 3 4 5 6 7 8 9 10 11 12 13 14 15 16 17 18 19 20 21 22 23 24 25 26 27 28 29 30 31 32 33 34 35 36 37 38 39 40 41 42 43 44 45 46 47 48 49 50
827
ASUS43 KIWX 051010
RWRIWX

KIWX WEATHER ROUNDUP
NATIONAL WEATHER SERVICE NORTHERN INDIANA
500 AM EST MON DEC 05 2016

NOTE: "FAIR" INDICATES FEW OR NO CLOUDS BELOW 12,000 FEET WITH NO
SIGNIFICANT WEATHER AND/OR OBSTRUCTIONS TO VISIBILITY.

* THESE STATIONS ARE NOT UNDER NWS QUALITY CONTROL. THEY ALSO MAY NOT
  REPORT WEATHER SUCH AS PRECIPITATION OR FOG.

INZ001>027-051100-
NORTHERN INDIANA

CITY           SKY/WX    TMP DP  RH WIND       PRES   REMARKS
VALPARAISO     CLOUDY    33  30  88 MISG      30.02R
MICHIGAN CITY* CLOUDY    32  32 100 SW9       30.02R WCI  24
LAPORTE*       CLOUDY    34  34 100 W7        30.02R WCI  28
KNOX*          CLOUDY    32  25  74 W10       30.03R WCI  24
SOUTH BEND     CLOUDY    32  31  96 SW10      30.01R WCI  24
GOSHEN         CLOUDY    33  29  85 W12       30.00R WCI  24
MONTICELLO*    CLOUDY    32  28  84 W7        30.03S WCI  26
LOGANSPORT*    CLOUDY    32  30  93 W10G16    30.05R WCI  24
ROCHESTER*     CLOUDY    34  34 100 W9        30.03R WCI  26
WARSAW*        CLOUDY    32  30  93 W12       30.01S WCI  23
ANGOLA*        CLOUDY    34  34 100 W13       29.98R WCI  25
FORT WAYNE     CLOUDY    33  30  88 W12       30.01R WCI  24
HUNTINGTON*    CLOUDY    32  31  96 W13       30.02R WCI  22
PERU/GRISSOM   CLOUDY    33  33  98 W9        30.02R WCI  25
MARION*        CLOUDY    33  31  92 W10       30.04R WCI  24

$$
INZ028>050-051100-
CENTRAL INDIANA

CITY           SKY/WX    TMP DP  RH WIND       PRES   REMARKS
LAFAYETTE      CLOUDY    32  31  96 W9        30.05R WCI  24
KOKOMO*        CLOUDY    33  31  92 NW9       30.04R WCI  25
MUNCIE*        CLOUDY    35  31  85 W10       30.03R WCI  27
INDIANAPOLIS   CLOUDY    34  30  85 W8        30.05S WCI  27

$$
MIZ043>046-050>051-056>058-064>065-071>073-077>080-051100-
SOUTHWEST LOWER MICHIGAN

CITY           SKY/WX    TMP DP  RH WIND       PRES   REMARKS
BATTLE CREEK   CLOUDY    34  33  96 W12       29.94R WCI  25
BENTON HARBOR  CLOUDY    36  30  79 W17       29.99R
COLDWATER*     CLOUDY    34  33  95 W10       29.97R WCI  26
HILLSDALE*     CLOUDY    32  32 100 W14       29.94R WCI  22
HOLLAND        CLOUDY    37  31  78 W10       29.94R
GRAND RAPIDS   CLOUDY    35  31  85 W12       29.92R WCI  27
KALAMAZOO      CLOUDY    35  31  85 W9        29.95R WCI  28
STURGIS*       CLOUDY    34  31  91 W10       29.97R WCI  26
THREE RIVERS*  CLOUDY    35  33  92 SW7       29.98R WCI  29

$$
OHZ001>008-015>018-024>025-051100-
NORTHWEST OHIO

CITY           SKY/WX    TMP DP  RH WIND       PRES   REMARKS
WAUSEON*       CLOUDY    36  32  87 W13G22    29.97R
DEFIANCE       CLOUDY    36  30  79 W9G17     30.00R
FINDLAY        CLOUDY    35  30  82 W13       30.00R WCI  26
TOLEDO EXPRESS CLOUDY    35  34  96 W10       29.97R WCI  27
TOLEDO METCALF CLOUDY    36  33  89 SW12      29.98R
LIMA           CLOUDY    33  31  92 W13G25    30.01R WCI  24

$$
AND FOR LAKE MICHIGAN COASTAL AND OPEN LAKE BUOY OBSERVATIONS

STATION/POSITION TEMP    WIND        PRES    VSBY  WAVE
                 AIR SEA DIR/SP/G                  HT/PER
                 (F)     (DEG/KT/KT) (MB)    (MI)  (FT/S)
CALUMET HARBOR    33     240/  7/ 16 1015.6R
BURNS HARBOR      35     230/ 10/ 21 1016.9

$$
&&




USA.gov is the U.S. government's official web portal to all federal, state and local government web resources and services.